Regional Weather Roundup
Issued by NWS

Home | Current Version | Previous Version | Text Only | Print | Product List | Glossary On
Versions: 1 2 3 4 5 6 7 8 9 10 11 12 13 14 15 16 17 18 19 20 21 22 23 24 25 26 27 28 29 30 31 32 33 34 35 36 37 38 39 40 41 42 43 44 45 46 47 48 49 50
000
ASUS45 KABQ 282010
RWRNM
NEW MEXICO REGIONAL WEATHER ROUNDUP
NATIONAL WEATHER SERVICE ALBUQUERQUE NM
200 PM MDT THU JUL 28 2016

NOTE: "FAIR" MEANS FEW OR NO CLOUDS BELOW 12,000 FEET AGL WITH NO
       SIGNIFICANT WEATHER OR OBSTRUCTIONS TO VISION.

      THIS PRODUCT IS RELEASED AS TWO VERSIONS.  ONE VERSION NEAR
      THE TOP OF THE HOUR CONTAINING PRELIMINARY DATA FROM ALBUQUERQUE
      AND OTHER STATIONS.  A FINAL VERSION WITH ADDITIONAL DATA IS
      ISSUED ABOUT 10 MINUTES AFTER THE HOUR.

NMZ501-503-504-510>518-282100-
NORTHWEST PLATEAU/NORTHCENTRAL MOUNTAINS

CITY           SKY/WX    TMP DP  RH WIND       PRES   REMARKS
FARMINGTON     FAIR      96  34  11 VRB6      30.14F
LOS ALAMOS     FAIR      70  52  53 W16       30.36S
SANTA FE       FAIR      88  42  20 W8        30.26S
TAOS           FAIR     N/A N/A N/A SW15G21   30.29F
ANGEL FIRE     FAIR      80  42  26 W7        30.40F

$$
NMZ402-403-502-505>509-282100-
WESTCENTRAL MOUNTAINS/SOUTHWEST MOUNTAINS

CITY           SKY/WX    TMP DP  RH WIND       PRES   REMARKS
GALLUP         FAIR      91  38  15 VRB7      30.24F
GRANTS         FAIR      87  39  18 W13G20    30.28F
SILVER CITY    FAIR      88  53  30 S9        30.21F

$$
NMZ407-409-411-412-282100-
SOUTHERN DESERTS

CITY           SKY/WX    TMP DP  RH WIND       PRES   REMARKS
LORDSBURG      FAIR      93  54  26 E5        30.10F
DEMING         FAIR      96  51  21 SE9       30.10F
LAS CRUCES     FAIR      96  47  18 E10       30.12F
ALAMOGORDO     FAIR      93  52  24 SW9G18    30.09F
T OR C         PTSUNNY   91  52  26 CALM      30.14F

$$
NMZ519>523-282100-
CENTRAL VALLEYS/CENTRAL HIGHLANDS

CITY           SKY/WX    TMP DP  RH WIND       PRES   REMARKS
ALBUQUERQUE    FAIR      93  43  17 SW8       30.18F
DOUBLE EAGLE   MOSUNNY   91  45  19 VRB5      30.22F
MORIARTY ARPT  FAIR      89  39  17 E3        30.27F
CLINES CORNERS FAIR      86  42  21 CALM      30.32F
BELEN          FAIR      95  38  13 SE5       30.17F
SOCORRO        FAIR      93  44  18 SE8       30.15F

$$
NMZ524>526-539-540-282100-
SOUTHCENTRAL MOUNTAINS

CITY           SKY/WX    TMP DP  RH WIND       PRES   REMARKS
RUIDOSO          N/A     81  46  30 SE15      30.35F

$$
NMZ527>531-282100-
NORTHEAST HIGHLANDS/NORTHEAST PLAINS

CITY           SKY/WX    TMP DP  RH WIND       PRES   REMARKS
LAS VEGAS      FAIR      78  42  27 SW16G22   30.32F
RATON          FAIR      91  41  17 SW5       30.20F
CLAYTON        FAIR      91  55  29 S21G28    30.13F

$$
NMZ532>537-282100-
EASTCENTRAL PLAINS

CITY           SKY/WX    TMP DP  RH WIND       PRES   REMARKS
TUCUMCARI      FAIR      93  47  20 CALM      30.10F
CANNON AFB     NOT AVBL
CLOVIS AIRPORT FAIR      88  55  33 E3        30.14F

$$
NMZ028-029-538-282100-
SOUTHEAST PLAINS

CITY           SKY/WX    TMP DP  RH WIND       PRES   REMARKS
ROSWELL        FAIR      93  56  28 E5        30.08F
ARTESIA        FAIR      93  57  29 SW6G12    30.07F
CARLSBAD       PTSUNNY   89  62  40 SE16      30.04F
HOBBS          MOSUNNY   91  54  27 NE8G15    30.09F


$$




USA.gov is the U.S. government's official web portal to all federal, state and local government web resources and services.